Weather History for KTOC - February, 2014

Change the Weather History Date:

Monday, February 3, 2014

  Actual Average Record
Temperature  
Mean Temperature 58 °F -  
Max Temperature 70 °F 54 °F 70 °F (2014)
Min Temperature 46 °F 34 °F 23 °F (2015)
Degree Days  
Heating Degree Days 7    
Growing Degree Days 8 (Base 50)    
Moisture  
Dew Point 51 °F    
Average Humidity 78    
Maximum Humidity 99    
Minimum Humidity 40    
Precipitation  
Precipitation 0.00 in - - ()
Sea Level Pressure  
Sea Level Pressure 29.99 in    
Wind  
Wind Speed 3 mph (WSW)    
Max Wind Speed 13 mph    
Max Gust Speed 20 mph    
Visibility 8 miles    
Events Rain    
Averages and records for this station are not official NWS values.
T = Trace of Precipitation, MM = Missing Value Source: NWS Daily Summary

Daily Weather History Graph

Daily Weather History Graph

Search for Another Location

Airport or City:

Trip Planner

Search our weather history database for the weather conditions in past years. The results will help you decide how hot, cold, wet, or windy it might be!

Date:

Astronomy

Feb. 03, 2014 Rise Set
Actual Time 7:29 AM EST 6:04 PM EST
Civil Twilight 7:03 AM EST 6:31 PM EST
Nautical Twilight 6:33 AM EST 7:01 PM EST
Astronomical Twilight 6:03 AM EST 7:30 PM EST
Moon 9:44 AM EST (2/3) 10:39 PM EST (2/3)
Length of Visible Light 11h 27m
Length of Day
10h 35m
Waxing Crescent, 19% of the Moon is Illuminated
Feb 3
Waxing Crescent
Feb 6
First Quarter
Feb 14
Full
Feb 22
Last Quarter
Mar 1
New

Hourly Weather History & Observations

Time (EST) Temp. Dew Point Humidity Pressure Visibility Wind Dir Wind Speed Gust Speed Precip Events Conditions
12:15 AM 54.5 °F 53.6 °F 97% 29.94 in 3.0 mi Calm Calm - N/A   Overcast
12:35 AM 54.5 °F 53.8 °F 97% 29.94 in 4.0 mi Calm Calm - N/A   Overcast
12:55 AM 54.5 °F 53.6 °F 97% 29.92 in 2.5 mi Calm Calm - N/A   Overcast
1:15 AM 54.5 °F 53.8 °F 97% 29.92 in 2.5 mi Calm Calm - N/A   Overcast
1:35 AM 54.5 °F 53.8 °F 97% 29.92 in 2.5 mi Calm Calm - N/A   Overcast
1:55 AM 54.7 °F 54.1 °F 98% 29.92 in 3.0 mi Calm Calm - N/A   Overcast
2:15 AM 54.9 °F 54.3 °F 98% 29.91 in 3.0 mi Calm Calm - N/A   Overcast
2:35 AM 54.9 °F 54.5 °F 99% 29.89 in 3.0 mi Calm Calm - N/A   Overcast
2:55 AM 54.9 °F 54.5 °F 99% 29.89 in 3.0 mi Calm Calm - N/A   Overcast
3:15 AM 54.9 °F 54.5 °F 99% 29.88 in 3.0 mi Calm Calm - N/A   Overcast
3:35 AM 54.7 °F 54.1 °F 98% 29.88 in 3.0 mi Calm Calm - N/A   Overcast
3:55 AM 55.4 °F 54.7 °F 97% 29.87 in 4.0 mi Calm Calm - N/A   Overcast
4:15 AM 55.4 °F 54.7 °F 97% 29.87 in 4.0 mi Calm Calm - N/A   Overcast
4:35 AM 55.4 °F 54.7 °F 97% 29.86 in 3.0 mi Calm Calm - N/A   Overcast
4:55 AM 54.9 °F 54.5 °F 99% 29.86 in 2.5 mi Calm Calm - N/A Rain Rain
5:15 AM 54.9 °F 54.5 °F 99% 29.85 in 2.5 mi Calm Calm - N/A   Overcast
5:35 AM 55.4 °F 54.7 °F 97% 29.87 in 3.0 mi Calm Calm - N/A Rain Light Rain
5:55 AM 58.5 °F 58.1 °F 99% 29.89 in 4.0 mi WSW 10.4 mph - N/A Rain Light Rain
6:15 AM 60.8 °F 60.1 °F 97% 29.91 in 7.0 mi SW 11.5 mph 16.1 mph N/A   Drizzle
6:35 AM 60.8 °F 59.9 °F 97% 29.91 in 7.0 mi WSW 8.1 mph - N/A   Drizzle
6:55 AM 61.0 °F 60.3 °F 97% 29.93 in 7.0 mi SW 5.8 mph - N/A Rain Light Rain
7:15 AM 60.8 °F 60.1 °F 97% 29.93 in 7.0 mi SSW 5.8 mph - N/A Rain Light Rain
7:35 AM 60.4 °F 59.9 °F 98% 29.92 in 7.0 mi SSW 5.8 mph - N/A Rain Light Rain
7:55 AM 60.4 °F 59.9 °F 98% 29.93 in 7.0 mi SSW 5.8 mph - N/A Rain Light Rain
8:15 AM 60.1 °F 59.5 °F 98% 29.95 in 10.0 mi SW 11.5 mph - N/A Rain Light Rain
8:35 AM 59.9 °F 59.2 °F 97% 29.96 in 10.0 mi SW 12.7 mph 16.1 mph N/A   Overcast
8:55 AM 59.9 °F 59.0 °F 97% 29.97 in 10.0 mi WSW 10.4 mph 16.1 mph N/A   Overcast
9:15 AM 60.8 °F 59.0 °F 94% 29.99 in 10.0 mi West 8.1 mph - N/A   Overcast
9:35 AM 60.8 °F 58.6 °F 93% 29.99 in 10.0 mi WSW 6.9 mph - N/A   Overcast
9:55 AM 62.2 °F 59.5 °F 91% 29.99 in 10.0 mi SW 6.9 mph - N/A   Overcast
10:15 AM 63.1 °F 59.2 °F 87% 30.00 in 10.0 mi WSW 8.1 mph - N/A   Overcast
10:35 AM 64.2 °F 58.1 °F 80% 30.01 in 10.0 mi WSW 4.6 mph 16.1 mph N/A   Mostly Cloudy
10:55 AM 63.7 °F 57.2 °F 79% 30.01 in 10.0 mi WSW 8.1 mph - N/A   Overcast
11:15 AM 64.4 °F 56.3 °F 75% 30.01 in 10.0 mi West 9.2 mph - N/A   Mostly Cloudy
11:35 AM 64.8 °F 54.7 °F 70% 30.01 in 10.0 mi West 8.1 mph 19.6 mph N/A   Mostly Cloudy
11:55 AM 66.0 °F 53.8 °F 65% 30.01 in 10.0 mi West 8.1 mph 16.1 mph N/A   Scattered Clouds
12:15 PM 66.9 °F 52.3 °F 59% 30.00 in 10.0 mi West 10.4 mph - N/A   Clear
12:35 PM 68.2 °F 52.3 °F 57% 30.00 in 10.0 mi West 4.6 mph - N/A   Clear
12:55 PM 68.7 °F 51.1 °F 53% 30.00 in 10.0 mi West 8.1 mph 16.1 mph N/A   Clear
1:15 PM 68.9 °F 50.4 °F 52% 29.99 in 10.0 mi West 9.2 mph - N/A   Clear
1:35 PM 68.7 °F 49.1 °F 50% 29.99 in 10.0 mi WSW 4.6 mph - N/A   Clear
1:55 PM 69.6 °F 48.0 °F 46% 29.99 in 10.0 mi West 6.9 mph 17.3 mph N/A   Clear
2:15 PM 69.8 °F 46.9 °F 44% 29.98 in 10.0 mi WSW 11.5 mph - N/A   Clear
2:35 PM 69.3 °F 45.5 °F 42% 29.99 in 10.0 mi WSW 9.2 mph - N/A   Clear
2:55 PM 69.4 °F 45.0 °F 41% 29.99 in 10.0 mi WSW 5.8 mph - N/A   Clear
3:15 PM 70.2 °F 45.3 °F 41% 29.99 in 10.0 mi West 8.1 mph - N/A   Clear
3:35 PM 69.8 °F 44.6 °F 40% 29.99 in 10.0 mi WSW 9.2 mph - N/A   Clear
3:55 PM 69.8 °F 44.6 °F 40% 30.00 in 10.0 mi West 6.9 mph - N/A   Clear
4:15 PM 69.6 °F 44.2 °F 40% 30.00 in 10.0 mi West 8.1 mph - N/A   Clear
4:35 PM 68.9 °F 43.7 °F 40% 30.01 in 10.0 mi West 5.8 mph 9.2 mph N/A   Clear
4:55 PM 68.2 °F 43.9 °F 41% 30.01 in 10.0 mi WSW 10.4 mph - N/A   Clear
5:15 PM 67.1 °F 43.7 °F 43% 30.02 in 10.0 mi WSW 8.1 mph - N/A   Clear
5:35 PM 66.2 °F 43.0 °F 43% 30.02 in 10.0 mi West 5.8 mph - N/A   Clear
5:55 PM 64.2 °F 43.0 °F 46% 30.03 in 10.0 mi WSW 4.6 mph - N/A   Clear
6:15 PM 62.1 °F 43.7 °F 51% 30.03 in 10.0 mi Calm Calm - N/A   Clear
6:35 PM 61.0 °F 43.9 °F 53% 30.04 in 10.0 mi Calm Calm - N/A   Clear
6:55 PM 59.4 °F 44.6 °F 58% 30.04 in 10.0 mi Calm Calm - N/A   Clear
7:15 PM 58.3 °F 45.9 °F 63% 30.06 in 10.0 mi WSW 5.8 mph - N/A   Clear
7:35 PM 56.5 °F 45.9 °F 68% 30.07 in 10.0 mi WSW 4.6 mph - N/A   Clear
7:55 PM 55.8 °F 46.2 °F 70% 30.07 in 10.0 mi Calm Calm - N/A   Clear
8:15 PM 53.2 °F 45.9 °F 76% 30.08 in 10.0 mi WSW 3.5 mph - N/A   Clear
8:35 PM 52.3 °F 45.9 °F 79% 30.09 in 10.0 mi WSW 4.6 mph - N/A   Clear
8:55 PM 51.8 °F 45.7 °F 80% 30.10 in 10.0 mi Calm Calm - N/A   Clear
9:15 PM 51.1 °F 45.5 °F 81% 30.11 in 10.0 mi Calm Calm - N/A   Clear
9:35 PM 50.0 °F 45.5 °F 85% 30.12 in 10.0 mi Calm Calm - N/A   Clear
9:55 PM 48.2 °F 45.3 °F 90% 30.12 in 10.0 mi Calm Calm - N/A   Clear
10:15 PM 48.2 °F 45.0 °F 89% 30.13 in 10.0 mi North 3.5 mph - N/A   Clear
10:35 PM 46.4 °F 44.1 °F 92% 30.14 in 10.0 mi Calm Calm - N/A   Clear
10:55 PM 47.3 °F 44.6 °F 90% 30.14 in 10.0 mi Calm Calm - N/A   Clear
11:15 PM 46.4 °F 44.2 °F 92% 30.15 in 10.0 mi Calm Calm - N/A   Clear
11:35 PM 47.3 °F 44.8 °F 91% 30.15 in 10.0 mi NNE 5.8 mph - N/A   Clear
11:55 PM 46.8 °F 44.2 °F 91% 30.16 in 10.0 mi NE 5.8 mph - N/A   Clear